User: anonymous   Login
Location: Larrial
(48.2758°N, 4.5331°W)
Time: 04:03:00
(UTC+00:00)
Language:

XW-2F - Orbit

View from above orbital plane
View from above orbital plane
View from above satellite
View from above satellite

Ground track
Ground track

The orbit data is extracted from the following two-line orbital elements,

1 40910U 15049M   21339.81188806  .00003738  00000-0  17686-3 0  9993
2 40910  97.4744 343.3061 0012501 297.1339 186.9156 15.19922488343740
Epoch (UTC): 05 December 2021 19:29:07
Eccentricity: 0.0012501
inclination: 97.4744°
perigee height: 497 km
apogee height: 514 km
right ascension of ascending node: 343.3061°
argument of perigee: 297.1339°
revolutions per day: 15.19922488
mean anomaly at epoch: 186.9156°
orbit number at epoch: 34374

The dashed part of the orbit path shows where the satellite is in the earth's shadow,  

DLR